Location: LDNL
(36.4545°S, 141.6685°E)
Time: 23:57:55
(UTC+10:00)

Envisat - Visible Passes

Search period start: 26 June 2022 00:00
Search period end: 06 July 2022 00:00
Orbit: 764 x 765 km, 98.2° (Epoch: 26 June)

Date Brightness Start Highest point End Pass type
(mag) Time Alt. Az. Time Alt. Az. Time Alt. Az.
26 Jun 5.2 18:06:29 10° SSW 18:10:33 24° WSW 18:14:36 10° WNW visible
28 Jun 5.7 18:32:48 10° SSW 18:35:24 14° WSW 18:38:00 10° W visible
29 Jun 4.8 17:54:24 10° S 17:58:52 31° WSW 18:03:19 10° NW visible
01 Jul 5.5 18:20:22 10° SSW 18:23:46 18° WSW 18:27:08 10° WNW visible
03 Jul 6.1 18:48:21 10° WSW 18:48:33 10° WSW 18:48:46 10° WSW visible
04 Jul 5.3 18:08:08 10° SSW 18:12:06 23° WSW 18:16:03 10° WNW visible
